User: anonymous   Login
Location: Bougoura
(13.1861°N, 5.0773°W)
Time: 13:58:31
(UTC+00:00)
Language:

Cosmos 158 Rocket - Orbit

View from above orbital plane
View from above orbital plane
View from above satellite
View from above satellite

Ground track
Ground track

The orbit data is extracted from the following two-line orbital elements,

1 02802U 67045B   20339.69263317  .00000029  00000-0  16141-4 0  9996
2 02802  74.0118 328.7432 0065051  78.3642 282.4806 14.43787751811750
Epoch (UTC): 04 December 2020 16:37:23
Eccentricity: 0.0065051
inclination: 74.0118°
perigee height: 699 km
apogee height: 792 km
right ascension of ascending node: 328.7432°
argument of perigee: 78.3642°
revolutions per day: 14.43787751
mean anomaly at epoch: 282.4806°
orbit number at epoch: 81175

The dashed part of the orbit path shows where the satellite is in the earth's shadow,  

DLR